| time (UTC) | temp F | wind direction | speed MPH | gust MPH | rain 1hr in | rain 24hr in | rain mn in | humidity % | barometer mb |
| 20260902192019 | 59 | 107 | 3.0 | 10.0 | 0.00 | 0.04 | 0.04 | 62 | 1011.0 |
| 20260902191542 | 60 | 102 | 2.0 | 9.0 | 0.00 | 0.04 | 0.04 | 64 | 1011.1 |
| 20260902191019 | 59 | 103 | 2.0 | 11.0 | 0.00 | 0.04 | 0.04 | 65 | 1011.0 |
| 20260902190049 | 59 | 92 | 4.0 | 11.0 | 0.00 | 0.04 | 0.04 | 62 | 1011.0 |
| 20260902185518 | 58 | 108 | 1.0 | 8.0 | 0.00 | 0.04 | 0.04 | 65 | 1011.0 |
| 20260902184606 | 58 | 115 | 0.0 | 10.0 | 0.00 | 0.04 | 0.04 | 66 | 1011.4 |
| 20260902184020 | 58 | 104 | 3.0 | 11.0 | 0.00 | 0.04 | 0.04 | 64 | 1011.4 |
| 20260902183047 | 59 | 120 | 0.0 | 12.0 | 0.00 | 0.04 | 0.04 | 62 | 1011.5 |
| 20260902182520 | 59 | 103 | 0.0 | 10.0 | 0.00 | 0.04 | 0.04 | 61 | 1011.3 |
| 20260902182019 | 58 | 89 | 2.0 | 10.0 | 0.00 | 0.04 | 0.04 | 62 | 1011.4 |
| 20260902181545 | 58 | 113 | 0.0 | 10.0 | 0.00 | 0.04 | 0.04 | 62 | 1011.4 |
| 20260902180517 | 57 | 100 | 2.0 | 11.0 | 0.00 | 0.04 | 0.04 | 67 | 1011.3 |
| 20260902180052 | 57 | 104 | 2.0 | 8.0 | 0.00 | 0.04 | 0.04 | 67 | 1011.3 |
| 20260902175516 | 57 | 99 | 1.0 | 12.0 | 0.00 | 0.04 | 0.04 | 70 | 1011.1 |
| 20260902174544 | 55 | 97 | 1.0 | 6.0 | 0.00 | 0.04 | 0.04 | 69 | 1011.3 |
| 20260902173043 | 54 | 55 | 0.0 | 7.0 | 0.00 | 0.04 | 0.04 | 75 | 1010.9 |
| 20260902172521 | 53 | 90 | 0.0 | 6.0 | 0.00 | 0.04 | 0.04 | 76 | 1010.8 |
| 20260902171557 | 52 | 101 | 1.0 | 6.0 | 0.00 | 0.04 | 0.04 | 79 | 1011.0 |
| 20260902170523 | 53 | 101 | 0.0 | 8.0 | 0.00 | 0.04 | 0.04 | 81 | 1011.0 |
| 20260902170050 | 53 | 108 | 0.0 | 8.0 | 0.00 | 0.04 | 0.04 | 83 | 1011.0 |
| 20260902165517 | 52 | 103 | 0.0 | 4.0 | 0.00 | 0.04 | 0.04 | 80 | 1011.1 |
| 20260902164546 | 51 | 98 | 0.0 | 6.0 | 0.00 | 0.04 | 0.04 | 77 | 1010.8 |
| 20260902163044 | 51 | 99 | 0.0 | 0.0 | 0.00 | 0.04 | 0.04 | 78 | 1010.4 |
| 20260902162020 | 51 | 98 | 0.0 | 2.0 | 0.00 | 0.04 | 0.04 | 81 | 1010.8 |
| 20260902161542 | 51 | 98 | 0.0 | 2.0 | 0.00 | 0.04 | 0.04 | 81 | 1011.0 |
| 20260902161019 | 52 | 87 | 0.0 | 0.0 | 0.00 | 0.04 | 0.04 | 79 | 1010.9 |
| 20260902160043 | 52 | 94 | 0.0 | 0.0 | 0.00 | 0.04 | 0.04 | 79 | 1010.8 |
| 20260902155525 | 52 | 95 | 0.0 | 0.0 | 0.00 | 0.04 | 0.04 | 77 | 1011.0 |
| 20260902154552 | 53 | 76 | 0.0 | 0.0 | 0.00 | 0.04 | 0.04 | 73 | 1010.7 |
| 20260902154018 | 54 | 76 | 0.0 | 0.0 | 0.00 | 0.04 | 0.04 | 79 | 1010.8 |
| 20260902153525 | 53 | 80 | 0.0 | 0.0 | 0.00 | 0.04 | 0.04 | 76 | 1010.9 |
| 20260902153054 | 53 | 77 | 0.0 | 0.0 | 0.00 | 0.04 | 0.04 | 79 | 1010.9 |
| 20260902152518 | 51 | 71 | 0.0 | 0.0 | 0.01 | 0.04 | 0.04 | 81 | 1010.7 |
| 20260902151547 | 51 | 71 | 0.0 | 0.0 | 0.01 | 0.04 | 0.04 | 80 | 1010.9 |
| 20260902150054 | 51 | 73 | 0.0 | 0.0 | 0.01 | 0.04 | 0.04 | 80 | 1011.0 |
| 20260902144553 | 50 | 76 | 0.0 | 0.0 | 0.01 | 0.04 | 0.04 | 78 | 1011.1 |
| 20260902143517 | 50 | 81 | 0.0 | 0.0 | 0.01 | 0.04 | 0.04 | 77 | 1011.3 |
| 20260902143050 | 50 | 81 | 0.0 | 0.0 | 0.01 | 0.04 | 0.04 | 75 | 1011.3 |
| 20260902141554 | 50 | 88 | 0.0 | 7.0 | 0.00 | 0.03 | 0.03 | 71 | 1010.9 |
| 20260902141027 | 49 | 71 | 0.0 | 7.0 | 0.00 | 0.03 | 0.03 | 75 | 1011.0 |
| 20260902140518 | 49 | 91 | 2.0 | 7.0 | 0.00 | 0.03 | 0.03 | 75 | 1011.1 |
| 20260902140051 | 49 | 92 | 2.0 | 7.0 | 0.00 | 0.03 | 0.03 | 76 | 1011.2 |
| 20260902135524 | 49 | 84 | 0.0 | 8.0 | 0.00 | 0.03 | 0.03 | 77 | 1011.3 |
| 20260902135025 | 49 | 92 | 3.0 | 8.0 | 0.01 | 0.03 | 0.03 | 75 | 1011.5 |
| 20260902134556 | 49 | 90 | 0.0 | 7.0 | 0.01 | 0.03 | 0.03 | 76 | 1011.4 |
| 20260902133041 | 48 | 64 | 0.0 | 2.0 | 0.03 | 0.03 | 0.03 | 79 | 1011.1 |
| 20260902132525 | 48 | 74 | 0.0 | 3.0 | 0.03 | 0.03 | 0.03 | 78 | 1010.8 |
| 20260902131555 | 48 | 86 | 0.0 | 6.0 | 0.03 | 0.03 | 0.03 | 78 | 1010.8 |
| 20260902130051 | 48 | 88 | 0.0 | 8.0 | 0.03 | 0.03 | 0.03 | 80 | 1011.0 |
| 20260902125025 | 49 | 97 | 4.0 | 12.0 | 0.02 | 0.02 | 0.02 | 78 | 1011.1 |
| 20260902124556 | 48 | 88 | 4.0 | 8.0 | 0.02 | 0.02 | 0.02 | 79 | 1011.0 |
| 20260902123524 | 49 | 86 | 0.0 | 3.0 | 0.01 | 0.01 | 0.01 | 82 | 1011.6 |
| 20260902123059 | 50 | 64 | 0.0 | 1.0 | 0.00 | 0.00 | 0.00 | 78 | 1011.3 |
| 20260902122025 | 50 | 38 | 0.0 | 4.0 | 0.00 | 0.00 | 0.00 | 75 | 1011.1 |
| 20260902121553 | 50 | 38 | 0.0 | 4.0 | 0.00 | 0.00 | 0.00 | 77 | 1011.0 |
| 20260902120526 | 51 | 29 | 0.0 | 0.0 | 0.00 | 0.00 | 0.00 | 74 | 1011.2 |
| 20260902120100 | 51 | 29 | 0.0 | 0.0 | 0.00 | 0.00 | 0.00 | 70 | 1011.1 |
| 20260902115524 | 51 | 29 | 0.0 | 0.0 | 0.00 | 0.00 | 0.00 | 74 | 1011.6 |
| 20260902115024 | 50 | 29 | 0.0 | 0.0 | 0.00 | 0.00 | 0.00 | 79 | 1011.9 |
| 20260902114554 | 50 | 27 | 0.0 | 0.0 | 0.00 | 0.00 | 0.00 | 79 | 1012.2 |
| 20260902114023 | 50 | 27 | 0.0 | 0.0 | 0.00 | 0.00 | 0.00 | 80 | 1012.0 |
| 20260902113052 | 51 | 27 | 0.0 | 0.0 | 0.00 | 0.00 | 0.00 | 76 | 1011.9 |
| 20260902111548 | 51 | 27 | 0.0 | 0.0 | 0.00 | 0.00 | 0.00 | 73 | 1011.8 |
| 20260902110527 | 53 | 27 | 0.0 | 0.0 | 0.00 | 0.00 | 0.00 | 68 | 1011.5 |
| 20260902110053 | 53 | 27 | 0.0 | 0.0 | 0.00 | 0.00 | 0.00 | 67 | 1011.3 |
| 20260902105023 | 53 | 27 | 0.0 | 0.0 | 0.00 | 0.00 | 0.00 | 66 | 1011.3 |
| 20260902104552 | 53 | 27 | 0.0 | 0.0 | 0.00 | 0.00 | 0.00 | 67 | 1011.3 |
| 20260902103048 | 52 | 15 | 0.0 | 0.0 | 0.00 | 0.00 | 0.00 | 69 | 1011.5 |
| 20260902102524 | 52 | 15 | 0.0 | 0.0 | 0.00 | 0.00 | 0.00 | 73 | 1011.7 |
| 20260902102027 | 52 | 15 | 0.0 | 0.0 | 0.00 | 0.00 | 0.00 | 70 | 1011.6 |
| 20260902101553 | 52 | 15 | 0.0 | 0.0 | 0.00 | 0.00 | 0.00 | 71 | 1011.6 |
| 20260902101023 | 52 | 15 | 0.0 | 0.0 | 0.00 | 0.00 | 0.00 | 71 | 1011.6 |
| 20260902100526 | 51 | 15 | 0.0 | 0.0 | 0.00 | 0.00 | 0.00 | 72 | 1011.6 |
| 20260902100052 | 52 | 15 | 0.0 | 0.0 | 0.00 | 0.00 | 0.00 | 72 | 1011.7 |
| 20260902094551 | 51 | 15 | 0.0 | 0.0 | 0.00 | 0.00 | 0.00 | 75 | 1011.8 |
| 20260902094024 | 51 | 15 | 0.0 | 0.0 | 0.00 | 0.00 | 0.00 | 75 | 1011.9 |
| 20260902093817 | 51 | 15 | 0.0 | 0.0 | 0.00 | 0.00 | 0.00 | 75 | 1011.9 |
| 20260902092518 | 52 | 15 | 0.0 | 0.0 | 0.00 | 0.00 | 0.00 | 75 | 1011.9 |
| 20260902092019 | 52 | 15 | 0.0 | 0.0 | 0.00 | 0.00 | 0.00 | 75 | 1012.0 |
| 20260902091536 | 52 | 15 | 0.0 | 0.0 | 0.00 | 0.00 | 0.00 | 75 | 1012.1 |
| 20260902091019 | 51 | 15 | 0.0 | 0.0 | 0.00 | 0.00 | 0.00 | 76 | 1012.1 |
| 20260902090522 | 51 | 15 | 0.0 | 0.0 | 0.00 | 0.00 | 0.00 | 76 | 1012.3 |
| 20260902090036 | 51 | 15 | 0.0 | 2.0 | 0.00 | 0.00 | 0.00 | 77 | 1012.3 |
| 20260902085519 | 52 | 15 | 0.0 | 2.0 | 0.00 | 0.00 | 0.00 | 77 | 1012.3 |
| 20260902085021 | 52 | 17 | 0.0 | 0.0 | 0.00 | 0.00 | 0.00 | 76 | 1012.3 |
| 20260902084019 | 52 | 17 | 0.0 | 0.0 | 0.00 | 0.00 | 0.00 | 75 | 1012.5 |
| 20260902083517 | 52 | 17 | 0.0 | 0.0 | 0.00 | 0.00 | 0.00 | 75 | 1012.6 |
| 20260902082516 | 53 | 20 | 0.0 | 0.0 | 0.00 | 0.00 | 0.00 | 75 | 1012.5 |
| 20260902082016 | 52 | 20 | 0.0 | 0.0 | 0.00 | 0.00 | 0.00 | 75 | 1012.6 |
| 20260902081533 | 52 | 20 | 0.0 | 0.0 | 0.00 | 0.00 | 0.00 | 76 | 1012.7 |
| 20260902081018 | 53 | 20 | 0.0 | 3.0 | 0.00 | 0.00 | 0.00 | 76 | 1012.6 |
| 20260902080518 | 53 | 24 | 0.0 | 3.0 | 0.00 | 0.00 | 0.00 | 75 | 1012.5 |
| 20260902080037 | 53 | 40 | 0.0 | 0.0 | 0.00 | 0.00 | 0.00 | 75 | 1012.7 |
| 20260902075518 | 52 | 62 | 0.0 | 0.0 | 0.00 | 0.00 | 0.00 | 76 | 1012.8 |
| 20260902075021 | 52 | 74 | 0.0 | 0.0 | 0.00 | 0.00 | 0.00 | 77 | 1012.8 |
| 20260902074024 | 53 | 75 | 0.0 | 0.0 | 0.00 | 0.00 | 0.00 | 73 | 1012.6 |
| 20260902073518 | 52 | 75 | 0.0 | 0.0 | 0.00 | 0.00 | 0.00 | 74 | 1012.7 |
| 20260902072518 | 52 | 75 | 0.0 | 0.0 | 0.00 | 0.00 | 0.00 | 74 | 1012.8 |
| 20260902072018 | 52 | 75 | 0.0 | 0.0 | 0.00 | 0.00 | 0.00 | 75 | 1012.7 |
| 20260902071535 | 52 | 75 | 0.0 | 0.0 | 0.00 | 0.00 | 0.00 | 76 | 1012.8 |
| 20260902071016 | 52 | 75 | 0.0 | 0.0 | 0.00 | 0.00 | 0.00 | 77 | 1012.6 |
| 20260902070518 | 51 | 75 | 0.0 | 0.0 | 0.00 | 0.00 | 0.00 | 78 | 1012.7 |
| 20260902070037 | 51 | 75 | 0.0 | 0.0 | 0.00 | 0.00 | 0.00 | 78 | 1012.7 |
| 20260902065021 | 52 | 75 | 0.0 | 0.0 | 0.00 | 0.00 | 0.00 | 76 | 1012.5 |
| 20260902064538 | 52 | 75 | 0.0 | 0.0 | 0.00 | 0.00 | 0.00 | 74 | 1012.5 |
| 20260902064018 | 53 | 75 | 0.0 | 0.0 | 0.00 | 0.00 | 0.00 | 72 | 1012.4 |
| 20260902063519 | 54 | 75 | 0.0 | 0.0 | 0.00 | 0.00 | 0.00 | 71 | 1012.3 |
| 20260902063038 | 55 | 75 | 0.0 | 0.0 | 0.00 | 0.00 | 0.00 | 68 | 1012.3 |
| 20260902062520 | 55 | 75 | 0.0 | 0.0 | 0.00 | 0.00 | 0.00 | 65 | 1012.3 |
| 20260902062019 | 55 | 75 | 0.0 | 0.0 | 0.00 | 0.00 | 0.00 | 64 | 1012.3 |
| 20260902061019 | 56 | 75 | 0.0 | 0.0 | 0.00 | 0.00 | 0.00 | 60 | 1012.3 |
| 20260902060519 | 56 | 75 | 0.0 | 0.0 | 0.00 | 0.00 | 0.00 | 60 | 1012.2 |
| 20260902060042 | 56 | 75 | 0.0 | 0.0 | 0.00 | 0.00 | 0.00 | 62 | 1012.2 |
| 20260902055517 | 56 | 75 | 0.0 | 0.0 | 0.00 | 0.00 | 0.00 | 62 | 1012.3 |
| 20260902055017 | 56 | 75 | 0.0 | 0.0 | 0.00 | 0.00 | 0.00 | 62 | 1012.3 |
| 20260902054017 | 56 | 75 | 0.0 | 0.0 | 0.00 | 0.00 | 0.00 | 63 | 1012.3 |
| 20260902053519 | 56 | 75 | 0.0 | 0.0 | 0.00 | 0.00 | 0.00 | 64 | 1012.3 |
| 20260902053043 | 56 | 75 | 0.0 | 0.0 | 0.00 | 0.00 | 0.00 | 63 | 1012.4 |
| 20260902051022 | 56 | 75 | 0.0 | 0.0 | 0.00 | 0.00 | 0.00 | 64 | 1012.6 |
| 20260902050519 | 56 | 75 | 0.0 | 0.0 | 0.00 | 0.00 | 0.00 | 65 | 1012.5 |
| 20260902050037 | 56 | 75 | 0.0 | 0.0 | 0.00 | 0.00 | 0.00 | 67 | 1012.6 |
| 20260902045519 | 56 | 75 | 0.0 | 0.0 | 0.00 | 0.00 | 0.00 | 68 | 1012.5 |
| 20260902045018 | 56 | 75 | 0.0 | 0.0 | 0.00 | 0.00 | 0.00 | 67 | 1012.6 |
| 20260902044538 | 56 | 76 | 0.0 | 0.0 | 0.00 | 0.00 | 0.00 | 68 | 1012.6 |
| 20260902044018 | 56 | 76 | 0.0 | 0.0 | 0.00 | 0.00 | 0.00 | 68 | 1012.7 |
| 20260902043517 | 56 | 76 | 0.0 | 0.0 | 0.00 | 0.00 | 0.00 | 67 | 1012.8 |
| 20260902042517 | 56 | 76 | 0.0 | 0.0 | 0.00 | 0.00 | 0.00 | 65 | 1013.0 |
| 20260902042020 | 57 | 76 | 0.0 | 0.0 | 0.00 | 0.00 | 0.00 | 64 | 1013.0 |
| 20260902041540 | 57 | 76 | 0.0 | 0.0 | 0.00 | 0.00 | 0.00 | 63 | 1012.9 |
| 20260902041020 | 58 | 76 | 0.0 | 0.0 | 0.00 | 0.00 | 0.00 | 64 | 1012.9 |
| 20260902040519 | 58 | 77 | 0.0 | 0.0 | 0.00 | 0.00 | 0.00 | 62 | 1013.0 |
| 20260902040047 | 58 | 77 | 0.0 | 0.0 | 0.00 | 0.00 | 0.00 | 62 | 1013.0 |
| 20260902035517 | 58 | 82 | 0.0 | 0.0 | 0.00 | 0.00 | 0.00 | 61 | 1013.0 |
| 20260902035017 | 58 | 83 | 0.0 | 0.0 | 0.00 | 0.00 | 0.00 | 61 | 1012.9 |
| 20260902034539 | 58 | 83 | 0.0 | 0.0 | 0.00 | 0.00 | 0.00 | 59 | 1012.8 |
| 20260902034015 | 58 | 83 | 0.0 | 0.0 | 0.00 | 0.00 | 0.00 | 58 | 1012.7 |
| 20260902033517 | 58 | 83 | 0.0 | 0.0 | 0.00 | 0.00 | 0.00 | 58 | 1012.6 |
| 20260902033037 | 58 | 84 | 0.0 | 0.0 | 0.00 | 0.00 | 0.00 | 58 | 1012.5 |
| 20260902032520 | 58 | 84 | 0.0 | 0.0 | 0.00 | 0.00 | 0.00 | 57 | 1012.4 |
| 20260902031543 | 58 | 84 | 0.0 | 0.0 | 0.00 | 0.00 | 0.00 | 57 | 1012.2 |
| 20260902031017 | 58 | 84 | 0.0 | 0.0 | 0.00 | 0.00 | 0.00 | 57 | 1012.2 |
| 20260902030518 | 59 | 84 | 0.0 | 0.0 | 0.00 | 0.00 | 0.00 | 57 | 1012.2 |
| 20260902030042 | 59 | 88 | 0.0 | 0.0 | 0.00 | 0.00 | 0.00 | 57 | 1012.2 |
| 20260902025519 | 59 | 96 | 0.0 | 1.0 | 0.00 | 0.00 | 0.00 | 57 | 1012.1 |
| 20260902025019 | 59 | 78 | 0.0 | 1.0 | 0.00 | 0.00 | 0.00 | 57 | 1012.0 |
| 20260902024539 | 59 | 82 | 0.0 | 0.0 | 0.00 | 0.00 | 0.00 | 56 | 1012.1 |
| 20260902024015 | 59 | 80 | 0.0 | 4.0 | 0.00 | 0.00 | 0.00 | 56 | 1012.1 |
| 20260902023519 | 59 | 92 | 0.0 | 6.0 | 0.00 | 0.00 | 0.00 | 56 | 1012.0 |
| 20260902023038 | 60 | 103 | 0.0 | 6.0 | 0.00 | 0.00 | 0.00 | 56 | 1012.1 |
| 20260902022520 | 60 | 90 | 0.0 | 7.0 | 0.00 | 0.00 | 0.00 | 56 | 1012.2 |
| 20260902022019 | 60 | 98 | 0.0 | 9.0 | 0.00 | 0.00 | 0.00 | 55 | 1012.3 |
| 20260902021535 | 60 | 106 | 0.0 | 9.0 | 0.00 | 0.00 | 0.00 | 55 | 1012.3 |
| 20260902021019 | 60 | 28 | 1.0 | 8.0 | 0.00 | 0.00 | 0.00 | 55 | 1012.3 |
| 20260902020520 | 61 | 30 | 0.0 | 8.0 | 0.00 | 0.00 | 0.00 | 55 | 1012.4 |
| 20260902020039 | 61 | 103 | 0.0 | 8.0 | 0.00 | 0.00 | 0.00 | 54 | 1012.4 |
| 20260902015517 | 61 | 94 | 0.0 | 8.0 | 0.00 | 0.00 | 0.00 | 53 | 1012.3 |
| 20260902015017 | 61 | 78 | 0.0 | 3.0 | 0.00 | 0.00 | 0.00 | 51 | 1012.2 |
| 20260902014540 | 62 | 96 | 0.0 | 7.0 | 0.00 | 0.00 | 0.00 | 50 | 1012.3 |
| 20260902014020 | 62 | 92 | 0.0 | 7.0 | 0.00 | 0.00 | 0.00 | 49 | 1012.3 |
| 20260902013516 | 62 | 98 | 0.0 | 4.0 | 0.00 | 0.00 | 0.00 | 48 | 1012.2 |
| 20260902013043 | 63 | 94 | 0.0 | 3.0 | 0.00 | 0.00 | 0.00 | 46 | 1012.3 |
| 20260902012521 | 64 | 84 | 0.0 | 3.0 | 0.00 | 0.00 | 0.00 | 45 | 1012.2 |
| 20260902010041 | 64 | 77 | 0.0 | 0.0 | 0.00 | 0.00 | 0.00 | 43 | 1012.3 |
| 20260902005520 | 64 | 77 | 0.0 | 0.0 | 0.00 | 0.00 | 0.00 | 43 | 1012.3 |
| 20260902005018 | 64 | 78 | 0.0 | 0.0 | 0.00 | 0.00 | 0.00 | 43 | 1012.3 |
| 20260902004543 | 64 | 79 | 0.0 | 0.0 | 0.00 | 0.00 | 0.00 | 43 | 1012.3 |
| 20260902004020 | 65 | 79 | 0.0 | 0.0 | 0.00 | 0.00 | 0.00 | 44 | 1012.3 |
| 20260902003519 | 65 | 81 | 0.0 | 0.0 | 0.00 | 0.00 | 0.00 | 44 | 1012.3 |
| 20260902003043 | 65 | 82 | 0.0 | 0.0 | 0.00 | 0.00 | 0.00 | 44 | 1012.0 |
| 20260902002515 | 65 | 82 | 0.0 | 0.0 | 0.00 | 0.00 | 0.00 | 43 | 1012.0 |
| 20260902002016 | 65 | 82 | 0.0 | 2.0 | 0.00 | 0.00 | 0.00 | 43 | 1012.2 |
| 20260902001556 | 66 | 85 | 0.0 | 2.0 | 0.00 | 0.00 | 0.00 | 42 | 1012.4 |
| 20260902001018 | 66 | 89 | 0.0 | 4.0 | 0.00 | 0.00 | 0.00 | 42 | 1012.3 |
| 20260902000043 | 67 | 96 | 0.0 | 6.0 | 0.00 | 0.00 | 0.00 | 42 | 1012.5 |
| 20260901235520 | 67 | 103 | 0.0 | 6.0 | 0.00 | 0.00 | 0.00 | 42 | 1012.6 |
| 20260901235018 | 67 | 103 | 0.0 | 3.0 | 0.00 | 0.00 | 0.00 | 41 | 1012.7 |
| 20260901234541 | 67 | 103 | 0.0 | 4.0 | 0.00 | 0.00 | 0.00 | 41 | 1012.5 |
| 20260901234022 | 67 | 89 | 0.0 | 7.0 | 0.00 | 0.00 | 0.00 | 41 | 1012.6 |
| 20260901233517 | 67 | 94 | 0.0 | 7.0 | 0.00 | 0.00 | 0.00 | 41 | 1012.5 |
| 20260901233037 | 67 | 101 | 0.0 | 6.0 | 0.00 | 0.00 | 0.00 | 41 | 1012.7 |
| 20260901232519 | 67 | 106 | 0.0 | 6.0 | 0.00 | 0.00 | 0.00 | 40 | 1012.8 |
| 20260901232016 | 66 | 92 | 0.0 | 6.0 | 0.00 | 0.00 | 0.00 | 42 | 1012.7 |
| 20260901231538 | 66 | 105 | 0.0 | 6.0 | 0.00 | 0.00 | 0.00 | 43 | 1012.8 |
| 20260901231019 | 65 | 101 | 0.0 | 2.0 | 0.00 | 0.00 | 0.00 | 43 | 1012.8 |
| 20260901230519 | 65 | 86 | 0.0 | 1.0 | 0.00 | 0.00 | 0.00 | 43 | 1012.8 |
| 20260901230040 | 65 | 80 | 0.0 | 2.0 | 0.00 | 0.00 | 0.00 | 43 | 1013.1 |
| 20260901225518 | 66 | 87 | 0.0 | 2.0 | 0.00 | 0.00 | 0.00 | 42 | 1012.9 |
| 20260901225017 | 66 | 94 | 0.0 | 0.0 | 0.00 | 0.00 | 0.00 | 43 | 1012.9 |
| 20260901224545 | 67 | 19 | 0.0 | 7.0 | 0.00 | 0.00 | 0.00 | 41 | 1012.9 |
| 20260901224023 | 68 | 105 | 1.0 | 7.0 | 0.00 | 0.00 | 0.00 | 38 | 1012.8 |
| 20260901223519 | 68 | 106 | 0.0 | 7.0 | 0.00 | 0.00 | 0.00 | 43 | 1012.8 |
| 20260901223046 | 67 | 101 | 2.0 | 7.0 | 0.00 | 0.00 | 0.00 | 43 | 1013.1 |
| 20260901222518 | 67 | 103 | 0.0 | 7.0 | 0.00 | 0.00 | 0.00 | 42 | 1013.1 |
| 20260901222017 | 66 | 93 | 0.0 | 6.0 | 0.00 | 0.00 | 0.00 | 44 | 1013.1 |
| 20260901221556 | 65 | 113 | 0.0 | 6.0 | 0.00 | 0.00 | 0.00 | 43 | 1013.1 |
| 20260901221019 | 65 | 101 | 0.0 | 6.0 | 0.00 | 0.00 | 0.00 | 44 | 1013.1 |
| 20260901220519 | 65 | 106 | 0.0 | 4.0 | 0.00 | 0.00 | 0.00 | 46 | 1013.1 |
| 20260901220050 | 65 | 101 | 0.0 | 6.0 | 0.00 | 0.00 | 0.00 | 44 | 1013.1 |
| 20260901215517 | 65 | 113 | 0.0 | 6.0 | 0.00 | 0.00 | 0.00 | 44 | 1013.2 |
| 20260901215017 | 65 | 109 | 0.0 | 4.0 | 0.00 | 0.00 | 0.00 | 44 | 1013.1 |
| 20260901214541 | 65 | 98 | 0.0 | 4.0 | 0.00 | 0.00 | 0.00 | 42 | 1013.2 |
| 20260901214017 | 65 | 84 | 0.0 | 4.0 | 0.00 | 0.00 | 0.00 | 43 | 1013.4 |
| 20260901213521 | 66 | 105 | 0.0 | 4.0 | 0.00 | 0.00 | 0.00 | 43 | 1013.5 |
| 20260901213044 | 66 | 96 | 0.0 | 4.0 | 0.00 | 0.00 | 0.00 | 42 | 1013.4 |
| 20260901212519 | 66 | 90 | 0.0 | 6.0 | 0.00 | 0.00 | 0.00 | 41 | 1013.6 |
| 20260901212024 | 67 | 94 | 1.0 | 6.0 | 0.00 | 0.00 | 0.00 | 42 | 1013.7 |
| 20260901211544 | 67 | 107 | 0.0 | 6.0 | 0.00 | 0.00 | 0.00 | 41 | 1013.6 |
| 20260901211017 | 67 | 101 | 0.0 | 4.0 | 0.00 | 0.00 | 0.00 | 42 | 1013.7 |
| 20260901210522 | 67 | 74 | 0.0 | 0.0 | 0.00 | 0.00 | 0.00 | 42 | 1013.7 |
| 20260901210038 | 67 | 81 | 0.0 | 3.0 | 0.00 | 0.00 | 0.00 | 42 | 1013.8 |
| 20260901205516 | 67 | 86 | 0.0 | 3.0 | 0.00 | 0.00 | 0.00 | 42 | 1013.8 |
| 20260901205020 | 68 | 100 | 1.0 | 6.0 | 0.00 | 0.00 | 0.00 | 40 | 1013.8 |
| 20260901204546 | 68 | 98 | 0.0 | 6.0 | 0.00 | 0.00 | 0.00 | 38 | 1013.8 |
| 20260901204017 | 68 | 86 | 0.0 | 6.0 | 0.00 | 0.00 | 0.00 | 40 | 1013.8 |
| 20260901203518 | 68 | 107 | 1.0 | 6.0 | 0.00 | 0.00 | 0.00 | 37 | 1013.8 |
| 20260901203047 | 68 | 67 | 0.0 | 4.0 | 0.00 | 0.00 | 0.00 | 38 | 1013.7 |
| 20260901202521 | 68 | 103 | 0.0 | 3.0 | 0.00 | 0.00 | 0.00 | 39 | 1013.8 |
| 20260901202019 | 68 | 82 | 0.0 | 7.0 | 0.00 | 0.00 | 0.00 | 38 | 1013.8 |
| 20260901201543 | 68 | 109 | 2.0 | 7.0 | 0.00 | 0.00 | 0.00 | 38 | 1013.8 |
| 20260901201018 | 68 | 105 | 1.0 | 8.0 | 0.00 | 0.00 | 0.00 | 38 | 1013.9 |
| 20260901200518 | 68 | 113 | 1.0 | 8.0 | 0.00 | 0.00 | 0.00 | 39 | 1013.9 |
| 20260901200045 | 68 | 112 | 1.0 | 6.0 | 0.00 | 0.00 | 0.00 | 38 | 1014.0 |
| 20260901195518 | 68 | 101 | 0.0 | 8.0 | 0.00 | 0.00 | 0.00 | 40 | 1014.1 |
| 20260901195021 | 67 | 101 | 0.0 | 6.0 | 0.00 | 0.00 | 0.00 | 40 | 1014.1 |
| 20260901194545 | 67 | 98 | 0.0 | 2.0 | 0.00 | 0.00 | 0.00 | 39 | 1014.1 |
| 20260901194017 | 68 | 92 | 0.0 | 2.0 | 0.00 | 0.00 | 0.00 | 38 | 1014.2 |
| 20260901193518 | 69 | 78 | 0.0 | 2.0 | 0.00 | 0.00 | 0.00 | 38 | 1014.3 |
| 20260901193048 | 69 | 94 | 0.0 | 2.0 | 0.00 | 0.00 | 0.00 | 39 | 1014.4 |
| 20260901192517 | 69 | 106 | 0.0 | 6.0 | 0.00 | 0.00 | 0.00 | 38 | 1014.3 |